Terminal Aerodrome Forecast
Issued by NWS

Current Version | Previous Version | Text Only | Print | Product List | Glossary On
Versions: 1 2 3 4 5 6 7 8 9 10 11 12 13 14 15 16 17 18 19
000
FTUS42 KGSP 231723
TAFGMU
TAF
KGMU 231723Z 2318/2418 33004KT P6SM SKC
     FM241500 27003KT P6SM SCT170=

USA.gov is the U.S. government's official web portal to all federal, state and local government web resources and services.